When you browse on this site, cookies collect data to enhance your experience and personalize the content and advertising you see.
Visit our Privacy Policy to learn more. By continuing to use the site, you agree to this use of cookies and data.
  • en Suisse
  • Liste des pays
  • À 7 jours
  • Température de l'eau
  • Carte météo
  • Widgets météo
  • user-avatar
    Se connecter

    Météo par heure à Saurimo

    Ce jour, 29 Mai, Vendredi

    Heure Température Précipitation Vent Pression Humidité
    00:00 +20°C° 0 mm 2 m/s 671 mmHg 47%
    01:00 +20°C° 0 mm 2 m/s 671 mmHg 46%
    02:00 +19°C° 0 mm 2 m/s 671 mmHg 46%
    03:00 +19°C° 0 mm 2 m/s 670 mmHg 46%
    04:00 +19°C° 0 mm 2 m/s 670 mmHg 46%
    05:00 +19°C° 0 mm 3 m/s 671 mmHg 46%
    06:00 +19°C° 0 mm 3 m/s 671 mmHg 46%
    07:00 +19°C° 0 mm 3 m/s 672 mmHg 46%
    08:00 +22°C° 0 mm 3 m/s 673 mmHg 40%
    09:00 +26°C° 0 mm 4 m/s 673 mmHg 34%
    10:00 +29°C° 0 mm 4 m/s 674 mmHg 27%
    11:00 +30°C° 0 mm 3 m/s 673 mmHg 26%
    12:00 +31°C° 0 mm 3 m/s 673 mmHg 24%
    13:00 +34°C° 0 mm 2 m/s 672 mmHg 23%
    14:00 +32°C° 0 mm 2 m/s 672 mmHg 24%
    15:00 +31°C° 0 mm 2 m/s 671 mmHg 25%
    16:00 +31°C° 0 mm 2 m/s 670 mmHg 27%
    17:00 +28°C° 0 mm 2 m/s 671 mmHg 31%
    18:00 +26°C° 0 mm 2 m/s 671 mmHg 34%
    19:00 +23°C° 0 mm 1 m/s 671 mmHg 38%
    20:00 +22°C° 0 mm 1 m/s 671 mmHg 40%
    21:00 +21°C° 0 mm 2 m/s 670 mmHg 42%
    22:00 +20°C° 0 mm 2 m/s 670 mmHg 43%
    23:00 +19°C° 0 mm 2 m/s 670 mmHg 44%

    Demain, 30 Mai, Samedi

    Heure Température Précipitation Vent Pression Humidité
    00:00 +19°C° 0 mm 2 m/s 670 mmHg 44%
    01:00 +18°C° 0 mm 2 m/s 670 mmHg 44%
    02:00 +18°C° 0 mm 2 m/s 670 mmHg 44%
    03:00 +17°C° 0 mm 2 m/s 670 mmHg 44%
    04:00 +17°C° 0 mm 2 m/s 670 mmHg 44%
    05:00 +17°C° 0 mm 2 m/s 670 mmHg 44%
    06:00 +18°C° 0 mm 2 m/s 671 mmHg 43%
    07:00 +18°C° 0 mm 3 m/s 671 mmHg 43%
    08:00 +22°C° 0 mm 3 m/s 672 mmHg 38%
    09:00 +26°C° 0 mm 4 m/s 673 mmHg 33%
    10:00 +29°C° 0 mm 4 m/s 673 mmHg 29%
    11:00 +32°C° 0 mm 4 m/s 673 mmHg 27%
    12:00 +33°C° 0 mm 3 m/s 673 mmHg 26%
    13:00 +34°C° 0 mm 2 m/s 672 mmHg 25%
    14:00 +32°C° 0 mm 2 m/s 672 mmHg 26%
    15:00 +32°C° 0 mm 2 m/s 671 mmHg 27%
    16:00 +32°C° 0 mm 2 m/s 671 mmHg 28%
    17:00 +29°C° 0 mm 2 m/s 671 mmHg 34%
    18:00 +26°C° 0 mm 1 m/s 671 mmHg 40%
    19:00 +24°C° 0 mm 1 m/s 671 mmHg 46%
    20:00 +23°C° 0 mm 1 m/s 671 mmHg 48%
    21:00 +22°C° 0 mm 1 m/s 671 mmHg 50%
    22:00 +22°C° 0 mm 1 m/s 671 mmHg 52%
    23:00 +21°C° 0 mm 1 m/s 671 mmHg 53%

    Après-demain, 31 Mai, Dimanche

    Heure Température Précipitation Vent Pression Humidité
    00:00 +21°C° 0 mm 1 m/s 671 mmHg 53%
    01:00 +20°C° 0 mm 1 m/s 671 mmHg 54%
    02:00 +19°C° 0 mm 2 m/s 670 mmHg 55%
    03:00 +18°C° 0 mm 2 m/s 670 mmHg 55%
    04:00 +18°C° 0 mm 2 m/s 670 mmHg 56%
    05:00 +18°C° 0 mm 2 m/s 671 mmHg 55%
    06:00 +19°C° 0 mm 3 m/s 671 mmHg 54%
    07:00 +19°C° 0 mm 3 m/s 672 mmHg 53%
    08:00 +22°C° 0 mm 3 m/s 673 mmHg 47%
    09:00 +26°C° 0 mm 3 m/s 673 mmHg 41%
    10:00 +30°C° 0 mm 4 m/s 674 mmHg 35%
    11:00 +31°C° 0 mm 3 m/s 673 mmHg 33%
    12:00 +33°C° 0 mm 3 m/s 673 mmHg 31%
    13:00 +34°C° 0 mm 3 m/s 673 mmHg 29%
    14:00 +32°C° 0 mm 2 m/s 672 mmHg 30%
    15:00 +32°C° 0 mm 2 m/s 672 mmHg 32%
    16:00 +31°C° 0 mm 2 m/s 672 mmHg 34%
    17:00 +29°C° 0 mm 2 m/s 672 mmHg 37%
    18:00 +27°C° 0 mm 2 m/s 672 mmHg 40%
    19:00 +25°C° 0 mm 1 m/s 672 mmHg 44%
    20:00 +24°C° 0 mm 1 m/s 672 mmHg 46%
    21:00 +23°C° 0 mm 1 m/s 672 mmHg 49%
    22:00 +23°C° 0 mm 1 m/s 672 mmHg 51%
    23:00 +22°C° 0 mm 1 m/s 672 mmHg 53%

    1 Juin, Lundi

    Heure Température Précipitation Vent Pression Humidité
    00:00 +21°C° 0 mm 1 m/s 672 mmHg 55%
    01:00 +19°C° 0 mm 2 m/s 672 mmHg 57%
    02:00 +19°C° 0 mm 2 m/s 671 mmHg 57%
    03:00 +19°C° 0 mm 2 m/s 671 mmHg 57%
    04:00 +18°C° 0 mm 2 m/s 671 mmHg 58%
    05:00 +19°C° 0 mm 2 m/s 671 mmHg 57%
    06:00 +20°C° 0 mm 2 m/s 672 mmHg 56%
    07:00 +21°C° 0 mm 2 m/s 673 mmHg 55%
    08:00 +24°C° 0 mm 3 m/s 673 mmHg 48%
    09:00 +27°C° 0 mm 3 m/s 674 mmHg 42%
    10:00 +30°C° 0 mm 4 m/s 674 mmHg 35%
    11:00 +30°C° 0 mm 4 m/s 674 mmHg 34%
    12:00 +31°C° 0 mm 3 m/s 673 mmHg 32%
    13:00 +31°C° 0 mm 3 m/s 673 mmHg 31%
    14:00 +31°C° 0 mm 3 m/s 672 mmHg 33%
    15:00 +30°C° 0 mm 2 m/s 672 mmHg 35%
    16:00 +29°C° 0 mm 2 m/s 671 mmHg 37%
    17:00 +28°C° 0 mm 2 m/s 672 mmHg 40%
    18:00 +26°C° 0 mm 2 m/s 672 mmHg 43%
    19:00 +24°C° 0 mm 2 m/s 672 mmHg 47%
    20:00 +24°C° 0 mm 2 m/s 672 mmHg 47%
    21:00 +23°C° 0 mm 1 m/s 672 mmHg 48%
    22:00 +23°C° 0 mm 1 m/s 672 mmHg 49%
    23:00 +22°C° 0 mm 1 m/s 672 mmHg 50%

    2 Juin, Mardi

    Heure Température Précipitation Vent Pression Humidité
    00:00 +21°C° 0 mm 2 m/s 672 mmHg 50%
    01:00 +21°C° 0 mm 2 m/s 672 mmHg 51%
    02:00 +20°C° 0 mm 2 m/s 671 mmHg 55%
    03:00 +19°C° 0 mm 2 m/s 671 mmHg 58%
    04:00 +18°C° 0 mm 2 m/s 671 mmHg 62%
    05:00 +19°C° 0 mm 2 m/s 671 mmHg 61%
    06:00 +20°C° 0 mm 3 m/s 672 mmHg 60%
    07:00 +20°C° 0 mm 3 m/s 672 mmHg 59%
    08:00 +24°C° 0 mm 3 m/s 673 mmHg 51%
    09:00 +27°C° 0 mm 3 m/s 674 mmHg 43%
    10:00 +29°C° 0 mm 4 m/s 674 mmHg 35%
    11:00 +30°C° 0 mm 3 m/s 674 mmHg 33%
    12:00 +31°C° 0 mm 3 m/s 673 mmHg 31%
    13:00 +31°C° 0 mm 3 m/s 672 mmHg 29%
    14:00 +31°C° 0 mm 2 m/s 672 mmHg 31%
    15:00 +30°C° 0 mm 2 m/s 671 mmHg 34%
    16:00 +29°C° 0 mm 2 m/s 671 mmHg 36%
    17:00 +28°C° 0 mm 2 m/s 671 mmHg 38%
    18:00 +27°C° 0 mm 1 m/s 671 mmHg 40%
    19:00 +25°C° 0 mm 1 m/s 672 mmHg 42%
    20:00 +25°C° 0 mm 1 m/s 672 mmHg 43%
    21:00 +24°C° 0 mm 1 m/s 672 mmHg 44%
    22:00 +24°C° 0 mm 1 m/s 672 mmHg 45%
    23:00 +23°C° 0 mm 1 m/s 671 mmHg 46%

    3 Juin, Mercredi

    Heure Température Précipitation Vent Pression Humidité
    00:00 +23°C° 0 mm 1 m/s 671 mmHg 46%
    01:00 +23°C° 0 mm 1 m/s 671 mmHg 47%
    02:00 +21°C° 0 mm 1 m/s 670 mmHg 50%
    03:00 +20°C° 0 mm 1 m/s 670 mmHg 53%
    04:00 +18°C° 0 mm 2 m/s 670 mmHg 55%
    05:00 +19°C° 0 mm 2 m/s 670 mmHg 54%
    06:00 +19°C° 0 mm 2 m/s 671 mmHg 52%
    07:00 +20°C° 0 mm 2 m/s 671 mmHg 51%
    08:00 +24°C° 0 mm 2 m/s 672 mmHg 43%
    09:00 +27°C° 0 mm 2 m/s 672 mmHg 35%
    10:00 +31°C° 0 mm 2 m/s 673 mmHg 28%
    11:00 +32°C° 0 mm 2 m/s 673 mmHg 26%
    12:00 +34°C° 0 mm 2 m/s 672 mmHg 24%
    13:00 +35°C° 0 mm 2 m/s 672 mmHg 21%
    14:00 +32°C° 0 mm 1 m/s 671 mmHg 25%
    15:00 +31°C° 0 mm 1 m/s 671 mmHg 28%
    16:00 +30°C° 0 mm 1 m/s 670 mmHg 31%
    17:00 +29°C° 0 mm 1 m/s 670 mmHg 32%
    18:00 +27°C° 0 mm 1 m/s 671 mmHg 34%
    19:00 +26°C° 0 mm 1 m/s 671 mmHg 36%
    20:00 +25°C° 0 mm 1 m/s 671 mmHg 37%
    21:00 +25°C° 0 mm 1 m/s 671 mmHg 38%
    22:00 +24°C° 0 mm 1 m/s 671 mmHg 40%
    23:00 +23°C° 0 mm 1 m/s 671 mmHg 43%
    Voir plus